sat.trackr.live / text

‹ back to catalog

SDA_1671

NORAD 65981 · 2025-230H

PAYLOAD ACTIVE UNKNOWN

§ Identity

Operator
Country
US
Launch date
2025-10-15
Launch site
AFWTR
Launch vehicle
Mass (kg)
RCS (m²)

External: N2YO · Heavens-Above · Gunter

§ Orbital elements

Epoch: 2026-05-25T05:23:28.603968Z

Period
104.11 min
Inclination
81.3009°
Eccentricity
0.0001016
Mean motion
13.83201611 rev/d
Perigee alt
951.8 km
Apogee alt
953.3 km
Semi-major
7,330.7 km
B*
-3.9542e-3
RAAN
232.9836°
Arg perigee
234.9410°
Mean anomaly
125.1650°
Rev number
3,063

§ Raw data

SDA_16711 65981U 25230H   26145.22463662 -.00004317  00000+0 -39542-2 0  99912 65981  81.3009 232.9836 0001016 234.9410 125.1650 13.83201611 30634

JSON: /api/v1/satellites/65981 · /tle

For live sub-satellite position, see the globe view (requires WebGL).

§ Visibility from observer

Set your observer location to see the next 7 days of passes ≥ 10°. The values pass through the URL so the page stays shareable.

No JS? Fill the form by hand. The geolocation button needs JavaScript.